This demonstration page uses our WeatherBlox Daily Observations layout. Learn more.

41.55636, -103.73856

Hourly Observations for May 9, 2016

Temp ( °F °C ) Dew Point ( °F °C ) Humidity (%) Winds ( mph kmh ) Pressure ( in mb ) Visibility ( mi km ) Precip ( " mm )
12:53 am 00:53 Cloudy 50 10 45 7.2 83 83 NE 13 20 29.54 1000 10 16.0934 0 0
1:53 am 01:53 Cloudy 50 10 44 6.7 80 80 W 3 6 29.53 1000 10 16.0934 0 0
2:53 am 02:53 Clear 47 8.3 43 6.1 86 86 SW 5 7 29.52 1000 10 16.0934 0 0
3:53 am 03:53 Clear 45 7.2 43 6.1 93 93 WSW 3 6 29.52 1000 10 16.0934 0 0
4:53 am 04:53 Mostly Clear 45 7.2 42 5.6 90 90 NW 8 13 29.5 999 10 16.0934 0 0
5:53 am 05:53 Sunny 44 6.7 41 5 89 89 NNW 8 13 29.52 1000 10 16.0934 0 0
6:53 am 06:53 Mostly Cloudy 46 7.8 43 6.1 89 89 N 5 7 29.58 1002 10 16.0934 0 0
7:53 am 07:53 Cloudy 48 8.9 44 6.7 86 86 Calm 29.56 1001 10 16.0934 0 0
8:53 am 08:53 Sunny 51 10.6 45 7.2 80 80 WSW 5 7 29.54 1001 10 16.0934 0 0
9:53 am 09:53 Sunny 57 13.9 45 7.2 64 64 WNW 6 9 29.54 1000 10 16.0934 0 0
10:53 am 10:53 Sunny 59 15 42 5.6 54 54 WSW 8 13 29.53 1000 10 16.0934 0 0
11:53 am 11:53 Sunny 62 16.7 43 6.1 50 50 VRB 6 9 29.5 999 10 16.0934 0 0
12:53 pm 12:53 Partly Cloudy 65 18.3 45 7.2 49 49 W 13 20 29.48 998 10 16.0934 0 0
1:53 pm 13:53 Mostly Sunny 64 17.8 41 5 43 43 W 13 20 29.5 999 10 16.0934 0 0
2:53 pm 14:53 Mostly Sunny 67 19.4 41 5 39 39 NNW 7 11 29.49 999 10 16.0934 0 0
3:53 pm 15:53 Sunny 64 17.8 43 6.1 46 46 W 7 11 29.48 998 10 16.0934 0 0
4:53 pm 16:53 Sunny 68 20 41 5 38 38 W 5 7 29.47 998 10 16.0934 0 0
5:53 pm 17:53 Sunny 68 20 43 6.1 40 40 NW 5 7 29.49 999 10 16.0934 0 0
6:53 pm 18:53 Sunny 65 18.3 44 6.7 47 47 WSW 8 13 29.49 999 10 16.0934 0 0
7:53 pm 19:53 Cloudy 62 16.7 45 7.2 54 54 W 17 28 29.53 1000 10 16.0934 0 0
8:10 pm 20:10 Cloudy 59 15 46 8 63 63 W 17 28 29.5 999 10 16.0934 0 0
8:53 pm 20:53 Cloudy 56 13.3 51 10.6 84 84 undefined N/A 29.54 1000 10 16.0934 0.02 0.508
9:53 pm 21:53 Clear 54 12.2 49 9.4 83 83 NNE 3 6 29.56 1001 10 16.0934 0 0.0254
10:53 pm 22:53 Clear 52 11.1 49 9.4 89 89 SW 7 11 29.58 1002 10 16.0934 0 0
11:53 pm 23:53 Clear 49 9.4 46 7.8 90 90 NNW 5 7 29.59 1002 10 16.0934 0 0

Powered by AerisWeather